User: anonymous   Login
Location: Unspecified
(0.0000°N, 0.0000°E)
Time: 10:33:40
(UTC+00:00)
Language:

NOSS 2-1 (C) - Orbit

View from above orbital plane
View from above orbital plane
View from above satellite
View from above satellite

Ground track
Ground track

The orbit data is extracted from the following two-line orbital elements,

1 20691U 90050C   18229.91598708 0.00000120  00000-0  24527-4 0    01
2 20691  63.3337 167.3915 0829005  36.5055 323.4945 13.41821242    03
Epoch (UTC): 17 August 2018 21:59:01
Eccentricity: 0.0829005
inclination: 63.3337°
perigee height: 482 km
apogee height: 1722 km
right ascension of ascending node: 167.3915°
argument of perigee: 36.5055°
revolutions per day: 13.41821242
mean anomaly at epoch: 323.4945°
orbit number at epoch: 0

The dashed part of the orbit path shows where the satellite is in the earth's shadow,  

DLR